Portada
METAR-TAF:

METAR-TAF

Aeroports :

Grayslake, Illinois, Estats Units d'Amèrica

latitud: 42-19-29N, longitud: 088-04-27W, altitud: 240 m

Observació

L'informe es va fer fa 11 minuts, a les 17:15 UTC
Vent 4 kt del Nord/Nord-Est
Temperatura 28°C
Humitat 66%
Pressió 1019 hPa
Visibilitat: 16.1 km
Núvols disperses a una alçada de 3100 ft
Núvols disperses a una alçada de 4000 ft
Núvols disperses a una alçada de 4800 ft

METAR: KMBO 201715Z AUTO 03004KT 10SM SCT031 SCT040 SCT048 28/21 A3008 RMK AO2 PWINO

Hora: 12:26 (17:26 UTC)


TAF: manca

Observacions i pronòstics meteorològics de més de 4000 aeroports (METAR i TAF).

Les estacions disponibles són els punts grocs i vermells al mapa.

Posi el ratolí al punt desitjat per veure el nom de l'estació.

Feu clic per veure les observacions i els pronòstics meteorològics.

Per canviar el mapa: feu clic els botons verds amb una creu de color negre per apropar; al botó verd amb un guió per allunyar la imatge; o en les fletxes verdes per a mapes adjacents.


METAR-TAF: